Weather History for KBKW - October, 2012

Change the Weather History Date:

Saturday, October 27, 2012

  Actual Average Record
Temperature  
Mean Temperature 52 °F 50 °F  
Max Temperature 60 °F 60 °F 80 °F (1919)
Min Temperature 43 °F 40 °F 9 °F (1962)
Degree Days  
Heating Degree Days 13 15  
Month to date heating degree days 285 311  
Since 1 July heating degree days 403 445  
Cooling Degree Days 0 0  
Month to date cooling degree days 3 2  
Year to date cooling degree days 761 552  
Growing Degree Days 2 (Base 50)    
Moisture  
Dew Point 48 °F    
Average Humidity 86    
Maximum Humidity 93    
Minimum Humidity 78    
Precipitation  
Precipitation 0.02 in 0.09 in 1.86 in (1937)
Month to date precipitation 1.70 2.21  
Year to date precipitation 37.71 34.88  
Snow  
Snow 0.00 in - - ()
Month to date snowfall 0.0  
Since 1 September snowfall 0.0  
Snow Depth 0.00 in    
Sea Level Pressure  
Sea Level Pressure 29.93 in    
Wind  
Wind Speed 6 mph (North)    
Max Wind Speed 15 mph    
Max Gust Speed 20 mph    
Visibility 10 miles    
Events Rain    
T = Trace of Precipitation, MM = Missing Value Source: NWS Daily Summary

Daily Weather History Graph

Daily Weather History Graph

Search for Another Location

Airport or City:

Trip Planner

Search our weather history database for the weather conditions in past years. The results will help you decide how hot, cold, wet, or windy it might be!

Date:

Astronomy

Oct. 27, 2012 Rise Set
Actual Time 7:45 AM EDT 6:30 PM EDT
Civil Twilight 7:18 AM EDT 6:57 PM EDT
Nautical Twilight 6:47 AM EDT 7:28 PM EDT
Astronomical Twilight 6:16 AM EDT 7:59 PM EDT
Moon 5:15 PM EDT (10/27) 5:40 AM EDT (10/27)
Length of Visible Light 11h 39m
Length of Day
10h 45m
Waxing Gibbous, 96% of the Moon is Illuminated
Oct 27
Waxing Gibbous
Oct 29
Full
Nov 6
Last Quarter
Nov 13
New
Nov 20
First Quarter

Hourly Weather History & Observations

Time (EDT) Temp. Windchill Dew Point Humidity Pressure Visibility Wind Dir Wind Speed Gust Speed Precip Events Conditions
12:51 AM 57.0 °F - 51.1 °F 81% 29.94 in 10.0 mi ESE 4.6 mph - N/A   Clear
1:51 AM 55.0 °F - 50.0 °F 83% 29.94 in 10.0 mi ESE 3.5 mph - N/A   Clear
2:51 AM 54.0 °F - 50.0 °F 86% 29.92 in 10.0 mi Calm Calm - N/A   Clear
3:51 AM 55.0 °F - 51.1 °F 86% 29.89 in 10.0 mi Calm Calm - N/A   Partly Cloudy
4:09 AM 55.4 °F - 51.8 °F 88% 29.97 in 10.0 mi WSW 3.5 mph - N/A   Mostly Cloudy
4:51 AM 55.0 °F - 51.1 °F 86% 29.90 in 10.0 mi Calm Calm - N/A   Overcast
5:51 AM 55.9 °F - 52.0 °F 87% 29.89 in 10.0 mi Calm Calm - N/A   Overcast
6:51 AM 55.0 °F - 52.0 °F 89% 29.90 in 10.0 mi Calm Calm - N/A   Overcast
7:51 AM 55.9 °F - 52.0 °F 87% 29.90 in 10.0 mi Calm Calm - N/A   Overcast
8:51 AM 57.0 °F - 52.0 °F 83% 29.93 in 10.0 mi Calm Calm - N/A   Overcast
9:51 AM 57.2 °F - 53.6 °F 88% 29.98 in 10.0 mi ESE 3.5 mph - N/A   Overcast
10:51 AM 60.1 °F - 53.1 °F 78% 29.93 in 10.0 mi North 3.5 mph - N/A   Overcast
11:51 AM 57.9 °F - 52.0 °F 81% 29.93 in 10.0 mi North 5.8 mph - N/A   Overcast
12:37 PM 55.4 °F - 50.0 °F 82% 29.97 in 10.0 mi North 8.1 mph - N/A   Overcast
12:51 PM 54.0 °F - 50.0 °F 86% 29.94 in 10.0 mi North 9.2 mph - N/A   Overcast
1:04 PM 53.6 °F - 48.2 °F 82% 29.96 in 10.0 mi North 8.1 mph - N/A   Overcast
1:51 PM 51.1 °F - 48.9 °F 92% 29.94 in 10.0 mi NNW 6.9 mph - N/A   Overcast
2:51 PM 51.1 °F - 48.9 °F 92% 29.93 in 10.0 mi NNW 8.1 mph - 0.01 in   Overcast
3:51 PM 50.0 °F - 48.0 °F 93% 29.93 in 10.0 mi NNW 6.9 mph - 0.00 in   Overcast
4:39 PM 48.2 °F - 46.4 °F 93% 29.94 in 10.0 mi NNW 11.5 mph - N/A   Overcast
4:51 PM 48.9 °F - 46.0 °F 90% 29.93 in 10.0 mi NNW 9.2 mph - N/A   Overcast
5:51 PM 48.0 °F - 46.0 °F 93% 29.93 in 10.0 mi NNW 9.2 mph - 0.00 in   Overcast
6:27 PM 46.4 °F 41.5 °F 44.6 °F 93% 29.94 in 10.0 mi North 10.4 mph - N/A   Overcast
6:47 PM 46.4 °F 40.4 °F 44.6 °F 93% 29.94 in 10.0 mi North 13.8 mph 19.6 mph N/A   Overcast
6:51 PM 46.9 °F - 45.0 °F 93% 29.93 in 10.0 mi NNW 13.8 mph - N/A   Overcast
7:51 PM 46.0 °F 40.6 °F 44.1 °F 93% 29.94 in 10.0 mi NNW 11.5 mph - 0.00 in Rain Light Rain
8:51 PM 45.0 °F 39.7 °F 44.1 °F 97% 29.94 in 10.0 mi NNW 10.4 mph - 0.00 in Rain Light Rain
9:51 PM 44.1 °F 38.1 °F 42.1 °F 93% 29.95 in 10.0 mi NNW 11.5 mph - 0.00 in   Overcast
10:51 PM 44.1 °F 38.6 °F 42.1 °F 93% 29.94 in 10.0 mi North 10.4 mph - 0.01 in   Overcast
11:51 PM 43.0 °F 38.2 °F 42.1 °F 97% 29.94 in 10.0 mi North 8.1 mph - 0.00 in Rain Light Rain